Regional Weather Roundup
Issued by NWS

Home | Current Version | Previous Version | Graphics & Text | Print | Product List | Glossary On
Versions: 1 2 3 4 5 6 7 8 9 10 11 12 13 14 15 16 17 18 19 20 21 22 23 24 25 26 27 28 29 30 31 32 33 34 35 36 37 38 39 40 41 42 43 44 45 46 47 48 49 50
000
ASUS43 KOAX 240802
RWRNE

WEATHER ROUNDUP FOR NEBRASKA
NATIONAL WEATHER SERVICE OMAHA NE
300 AM CDT THU JUL 24 2014

NOTES: SATELLITE DATA IS BEING USED TO AUGMENT CLOUD COVER ABOVE
       12000 FEET.
       "FAIR" INDICATES FEW OR NO CLOUDS BELOW 12,000 FEET WITH NO
       SIGNIFICANT WEATHER AND/OR OBSTRUCTIONS TO VISIBILITY.

  * THESE STATIONS DO NOT REPORT WEATHER SUCH AS RAIN...SNOW OR FOG.

NEZ001>004-019>022-054>056-240900-
NEBRASKA PANHANDLE

CITY           SKY/WX    TMP DP  RH WIND       PRES   REMARKS
SCOTTSBLUFF    MOCLDY    70  64  81 SE15      30.06F
ALLIANCE       PTCLDY    67  63  87 SE15      30.08F
CHADRON        MOCLDY    72  65  78 SW9       30.01R
KIMBALL        MOCLDY    71  60  67 S12       30.12S
SIDNEY         MOCLDY    72  61  68 S13       30.14F
$$

NEZ057>060-069>072-079>082-240900-
SOUTHWEST NEBRASKA

CITY           SKY/WX    TMP DP  RH WIND       PRES   REMARKS
NORTH PLATTE   CLEAR     66  59  78 SE9       30.13F
IMPERIAL       CLEAR     68  62  81 SE12      30.13F
LEXINGTON      CLEAR     65  61  87 SE7       30.14F
MCCOOK         CLEAR     66  62  87 SE6       30.14F
OGALLALA       CLEAR     67  61  81 S7        30.12F
$$

NEZ005>010-023>029-035>040-094-240900-
NORTH CENTRAL NEBRASKA

CITY           SKY/WX    TMP DP  RH WIND       PRES   REMARKS
VALENTINE      PTCLDY    68  60  75 SE12      30.08F
AINSWORTH      CLEAR     66  58  75 S14       30.11S
BROKEN BOW     CLEAR     64  59  83 S8        30.13F
O`NEILL        MOCLDY    65  58  76 SE9       30.13F
ORD            CLEAR     66  59  78 SE8       30.12F
THEDFORD       CLEAR     68  61  78 S10       30.12F
$$

NEZ041-046>049-061>064-073>077-083>087-240900-
SOUTH CENTRAL NEBRASKA

CITY           SKY/WX    TMP DP  RH WIND       PRES   REMARKS
GRAND ISLAND   CLEAR     67  60  78 S8        30.14F
AURORA         CLEAR     64  62  94 SE5       30.14F
HASTINGS       CLEAR     67  58  72 SE9       30.14F
HEBRON         CLEAR     64  58  82 CALM      30.12F
HOLDREGE       CLEAR     65  60  84 SE8       30.14F
KEARNEY *      CLEAR     63  57  82 SE7       30.15S
YORK           CLEAR     64  63  94 SE6       30.14S
$$

NEZ011>018-030>034-042>045-240900-
NORTHEAST NEBRASKA

CITY           SKY/WX    TMP DP  RH WIND       PRES   REMARKS
NORFOLK        CLEAR     64  59  83 SE6       30.13F
ALBION         CLEAR     60  56  88 CALM      30.15S
BLAIR          CLEAR     66  60  80 SE7       30.15F
COLUMBUS *     CLEAR     63  57  82 CALM      30.15R
FREMONT        CLEAR     69  62  78 E6        30.15F
TEKAMAH        CLEAR     63  60  90 CALM      30.15S
WAYNE          CLEAR     61  59  93 CALM      30.15F
$$

NEZ050>053-065>068-078-088>093-240900-
SOUTHEAST NEBRASKA

CITY           SKY/WX    TMP DP  RH WIND       PRES   REMARKS
LINCOLN        CLEAR     72  62  71 SE10      30.14F
OMAHA EPPLEY   CLEAR     70  60  70 SE7       30.15F
BEATRICE       CLEAR     66  62  89 E3        30.13S
FALLS CITY     CLEAR     65  62  90 E5        30.13F
NEBRASKA CITY  CLEAR     65  62  89 CALM      30.15F
PLATTSMOUTH    CLEAR     67  60  79 SE5       30.15F
$$

NEZ044-045-051>053-067-240900-
OMAHA AREA

CITY           SKY/WX    TMP DP  RH WIND       PRES   REMARKS
OMAHA EPPLEY   CLEAR     70  60  70 SE7       30.15F
BLAIR          CLEAR     66  60  80 SE7       30.15F
FREMONT        CLEAR     69  62  78 E6        30.15F
MILLARD        CLEAR     69  62  78 SE3       30.14F
OFFUTT AFB     CLEAR     64  63  96 CALM      30.14F
PLATTSMOUTH    CLEAR     67  60  79 SE5       30.15F
WAHOO          FAIR      65  61  85 E5        30.14F
$$



USA.gov is the U.S. government's official web portal to all federal, state and local government web resources and services.